SL-8 R/B, 1575

Orbit data source: Space-Track

SL-8 R/B, 1575 is space debris in LEO originally from a launch on Fri, 03 Sep 1965 UTC launched from the Tyuratam Missile And Space Complex (TTMTR). Debris objects in space refer to the collection of defunct objects orbiting the Earth. Examples of debris include non-operational satellites, rocket bodies, and fragments generated from explosions, collisions, or faulty payload assembly.

Loading next visibility...
SL-8 R/B details
Identifier
1575, 1965-070F
Orbit
LEO
Last TLE update15 hours ago
Origin
Flag of CISRVSN (CIS)
ManufacturerYuzhnoe
MissionSpacecraft
Bus & MotorS3, Unknown motor
Mass1,434 kg wet, 1,434 kg dry
Launch date (UTC)
1965-09-03 (59 years ago)
Launch vehicleUnknown
Launch site
Tyuratam Missile And Space Complex (TTMTR)
Object type
Payload
Rocket body
Debris
Shape & HBRCyl, 6.57 m
Radar Cross Section14.646 m², Large (>1 m²)

Expand to show TLE details & history

TLE from 15 hours ago
0 SL-8 R/B
1 01575U 65070F   24355.87799317 -.00000038  00000-0  34932-3 0  9992
2 01575  56.1213 154.6959 0100980  66.6582  98.2009 12.57006790722442
Epoch: 2024-12-20T21:04Z
Definitive object data (Epoch: 2024-12-20T21:04:18.609Z)
Latitude11.5729°
Longitude-79.1826°
Altitude1,447.672 km
Speed7.134 km/s
True Right ascension21h 47m 19s
True Declination11° 30' 41"
Sunlit
Object was in daylight at TLE epoch
Visualization TLE readout
Latitude-10.6849°
Longitude-65.82967°
Altitude1,483.372 km
Speed7.102 km/s
Apparent Right ascension23h 00m 10s
Apparent Declination-23° 44' 22"
Sunlit
Object is in daylight
Visualization observer readout
Local Sidereal Time11:30:52
Azimuth24.1° NE
Elevation-72.576°
Doppler factor1
Orbital elements
Apogee altitude1,514.036 km
Perigee altitude1,356.239 km
Semi-major axis7,813.274 km
Eccentricity0.010098
Inclination56.1213°
RAAN154.6959°
Arg. of periapsis66.6582°
True anomaly99.34408°
Mean anomaly98.2009°
Eccentric anomaly98.7727°
Mean motion3.14263 °/min
BSTAR0.00034932
Orbital period114.55 mins
Loading maneuver chart data...
Loading historical data...
Loading historical data...
Loading historical data...
Loading historical data...
Loading historical data...
Loading historical data...
Loading historical data...

SL-8 R/B Visibility forecast

Observer location: undefined°, undefined

Span
Click to sort rows by Start time (UTC) header in descending order
Start Az.
Max El. time (UTC)
Max El. Az.
Max El.
End time (UTC)
End Az.
16 mins2024-12-21 13:31:04.147Z228.937° WSW2024-12-21 13:39:04.147Z290.011° WNW44.45°2024-12-21 13:47:04.147Z43.806° NE
13 mins2024-12-21 15:34:04.147Z284.057° WNW2024-12-21 15:40:04.147Z339.049° N28.101°2024-12-21 15:47:04.147Z40.139° NE
12 mins2024-12-21 17:37:04.147Z320.633° NNW2024-12-21 17:42:04.147Z4.739° NNE24.359°2024-12-21 17:49:04.147Z62.913° ENE
15 mins2024-12-21 19:37:04.147Z322.143° NNW2024-12-21 19:44:04.147Z36.23° NE38.136°2024-12-21 19:52:04.147Z109.201° ESE
14 mins2024-12-21 21:37:04.147Z303.176° NW2024-12-21 21:44:04.147Z226.152° WSW37.768°2024-12-21 21:51:04.147Z164.166° S
4 mins2024-12-22 12:25:04.147Z201.705° SSW2024-12-22 12:29:04.147Z180.888° SSW35.373°2024-12-22 12:29:04.147Z180.888° SSW
|